1312934432094,100.286
1312934492094,100.094
1312934552094,100.217
1312934612094,100.548
1312934672094,100.377
1312934732094,100.226
1312934792094,100.579
1312934852094,99.9628
1312934912094,100.206
1312934972094,99.7502
1312935032094,99.8707
1312935092094,100.278
1312935152094,99.9755
1312935212094,99.6592
1312935272094,99.6828
1312935332094,99.9977
1312935392094,99.6852
1312935452094,99.4821
1312935512094,99.6607
1312935572094,100.122
1312935632094,99.9766
1312935692094,99.6479
1312935752094,100.089
1312935812094,99.8159
1312935872094,100.216
1312935932094,99.8110
1312935992094,100.094
1312936052094,99.9406
1312936112094,99.4769
1312936172094,99.8997
1312936232094,99.6968
1312936292094,99.9505
1312936352094,99.8419
1312936412094,100.128
1312936472094,99.9369
1312936532094,100.036
1312936592094,99.3544
1312936652094,99.8671
1312936712094,99.8497
1312936772094,100.212
1312936832094,100.070
1312936892094,100.252
1312936952094,100.131
1312937012094,99.7390
1312937072094,99.3608
1312937132094,99.9994
1312937192094,99.7923
1312937252094,100.626
1312937312094,100.201
1312937372094,100.308
1312937432094,100.387
1312937492094,99.7871
1312937552094,99.8687
1312937612094,99.9791
1312937672094,99.8943
1312937732094,100.553
1312937792094,99.9298
1312937852094,100.421
1312937912094,99.8926
1312937972094,100.328
1312938032104,100.541
1312938092104,99.8206
1312938152104,100.026
1312938212104,100.237
1312938272104,100.084
1312938332104,100.399
1312938392104,100.142
1312938452104,99.9797
1312938512104,99.6761
1312938572104,99.8349
1312938632104,99.7571
1312938692104,99.8527
1312938752104,99.9774
1312938812104,99.7597
1312938872104,100.162
1312938932104,100.208
1312938992104,100.206
1312939052104,100.415
1312939112104,100.160
1312939172104,100.307
1312939232104,99.9520
1312939292104,100.557
1312939352104,100.019
1312939412104,100.026
1312939472104,99.8784
1312939532104,99.7481
1312939592104,99.4980
1312939652104,99.8788
1312939712104,99.9802
1312939772104,100.011
1312939832104,99.8228
1312939892104,99.9110
1312939952104,99.8248
1312940012104,99.8750
1312940072104,100.219
1312940132104,100.303
1312940192104,100.383
1312940252104,99.8563
1312940312104,99.7838
1312940372104,99.6848
1312940432104,100.211
1312940492104,100.164
1312940552104,100.559
1312940612104,100.455
1312940672104,99.8507
1312940732104,99.7454
1312940792104,99.5443
1312940852104,100.339
1312940912104,100.070
1312940972104,100.270
1312941032104,100.042
1312941092104,100.505
1312941152104,99.8693
1312941212104,100.261
1312941272104,100.215
1312941332104,100.322
1312941392104,99.9855
1312941452104,100.222
1312941512104,100.290
1312941572104,99.7156
1312941632113,100.136
1312941692113,99.8545
1312941752113,100.137
1312941812113,100.151
1312941872113,100.545
1312941932113,100.087
1312941992113,99.8480
1312942052113,100.140
1312942112113,100.154
1312942172113,100.435
1312942232113,100.528
1312942292113,100.578
1312942352113,100.346
1312942412113,100.438
1312942472113,99.9639
1312942532113,100.012
1312942592113,100.140
1312942652113,100.171
1312942712113,99.9044
1312942772113,100.041
1312942832113,100.016
1312942892113,100.527
1312942952113,100.093
1312943012113,100.076
1312943072113,99.9921
1312943132113,100.140
1312943192113,100.253
1312943252113,100.900
1312943312113,100.551
1312943372113,100.244
1312943432113,100.281
1312943492113,100.087
1312943552113,100.298
1312943612113,100.229
1312943672113,100.080
1312943732113,100.822
1312943792113,99.9519
1312943852113,99.8455
1312943912113,100.173
1312943972113,100.192
1312944032113,100.478
1312944092113,100.176
1312944152113,100.410
1312944212113,100.398
1312944272113,100.218
1312944332113,100.675
1312944392113,100.295
1312944452113,100.837
1312944512113,100.725
1312944572113,100.090
1312944632113,100.358
1312944692113,100.368
1312944752113,100.543
1312944812113,100.554
1312944872113,100.784
1312944932113,100.376
1312944992113,100.794
1312945052113,100.481
1312945112113,100.901
1312945172113,101.033
1312945232122,100.433
1312945292122,100.848
1312945352122,100.888
1312945412122,100.310
1312945472122,100.717
1312945532122,100.849
1312945592122,100.779
1312945652122,101.010
1312945712122,100.844
1312945772122,100.742
1312945832122,100.303
1312945892122,100.921
1312945952122,101.192
1312946012122,100.365
1312946072122,101.037
1312946132122,100.234
1312946192122,101.260
1312946252122,100.990
1312946312122,100.835
1312946372122,101.494
1312946432122,100.580
1312946492122,101.575
1312946552122,101.319
1312946612122,101.339
1312946672122,100.942
1312946732122,100.892
1312946792122,101.034
1312946852122,100.495
1312946912122,101.020
1312946972122,101.220
1312947032122,101.053
1312947092122,101.258
1312947152122,101.051
1312947212122,100.777
1312947272122,101.287
1312947332122,100.968
1312947392122,101.079
1312947452122,101.184
1312947512122,100.807
1312947572122,101.028
1312947632122,101.267
1312947692122,100.984
1312947752122,100.730
1312947812122,101.182
1312947872122,100.829
1312947932122,100.716
1312947992122,100.928
1312948052122,101.145
1312948112122,101.048
1312948172122,101.076
1312948232122,100.715
1312948292122,100.714
1312948352122,100.400
1312948412122,101.209
1312948472122,100.657
1312948532122,100.801
1312948592122,100.885
1312948652122,100.342
1312948712122,100.390
1312948772122,100.768
1312948832131,100.909
1312948892131,100.957
1312948952131,100.688
1312949012131,101.163
1312949072131,100.945
1312949132131,101.047
1312949192131,101.168
1312949252131,100.740
1312949312131,101.196
1312949372131,101.010
1312949432131,100.832
1312949492131,101.347
1312949552131,101.326
1312949612131,101.156
1312949672131,100.828
1312949732131,100.878
1312949792131,101.001
1312949852131,101.387
1312949912131,100.804
1312949972131,101.379
1312950032131,101.183
1312950092131,102.022
1312950152131,101.740
1312950212131,101.893
1312950272131,101.459
1312950332131,101.504
1312950392131,101.456
1312950452131,101.238
1312950512131,101.349
1312950572131,101.343
1312950632131,101.149
1312950692131,101.041
1312950752131,101.927
1312950812131,101.634
1312950872131,102.155
1312950932131,101.693
1312950992131,101.326
1312951052131,101.415
1312951112131,101.763
1312951172131,101.667
1312951232131,102.015
1312951292131,101.859
1312951352131,101.861
1312951412131,102.190
1312951472131,101.994
1312951532131,102.376
1312951592131,102.110
1312951652131,102.040
1312951712131,101.730
1312951772131,102.093
1312951832131,102.360
1312951892131,101.803
1312951952131,101.635
1312952012131,102.096
1312952072131,102.208
1312952132131,102.098
1312952192131,102.272
1312952252131,102.370
1312952312131,102.571
1312952372131,102.377
1312952432140,101.997
1312952492140,102.634
1312952552140,102.079
1312952612140,102.402
1312952672140,102.091
1312952732140,102.177
1312952792140,101.856
1312952852140,102.221
1312952912140,102.855
1312952972140,102.438
1312953032140,101.882
1312953092140,102.706
1312953632140,102.683
1312953692140,102.476
1312953752140,102.999
1312953812140,102.895
1312953872140,102.300
1312953932140,102.703
1312953992140,103.310
1312954052140,102.247
1312954112140,102.363
1312954172140,102.922
1312954232140,102.497
1312954292140,102.617
1312954352140,102.316
1312954412140,102.311
1312954472140,102.324
1312954532140,101.916
1312954592140,102.195
1312954652140,102.053
1312954712140,102.633
1312954772140,103.006
1312954832140,102.768
1312954892140,102.223
1312954952140,102.087
1312955012140,102.331
1312955072140,102.260
1312955132140,102.521
1312955192140,102.098
1312955252140,101.813
1312955312140,102.115
1312955372140,102.704
1312955432140,102.030
1312955492140,102.224
1312955552140,102.065
1312955612140,102.077
1312955672140,101.550
1312955732140,102.240
1312955792140,102.255
1312955852140,101.889
1312955912140,102.501
1312955972140,102.316
1312956032149,101.359
1312956092149,101.929
1312956152149,101.939
1312956212149,102.161
1312956272149,102.105
1312956332149,102.170
1312956392149,102.253
1312956452149,101.402
1312956512149,101.522
1312956572149,101.528
1312956632149,101.430
1312956692149,101.617
1312956752149,101.666
1312956812149,101.768
1312956872149,101.818
1312956932149,101.496
1312956992149,101.746
1312957052149,101.063
1312957112149,101.750
1312957172149,101.486
1312957232149,101.399
1312957292149,101.563
1312957352149,101.158
1312957412149,101.349
1312957472149,100.607
1312957532149,100.901
1312957592149,100.807
1312957652149,101.120
1312957712149,101.591
1312957772149,101.025
1312957832149,101.673
1312957892149,100.552
1312957952149,100.776
1312958012149,100.663
1312958072149,100.909
1312958132149,100.828
1312958192149,100.867
1312958252149,100.339
1312958312149,101.034
1312958372149,100.992
1312958432149,100.639
1312958492149,100.601
1312958552149,100.728
1312958612149,100.563
1312958672149,100.450
1312958732149,100.484
1312958792149,100.718
1312958852149,100.245
1312958912149,100.322
1312958972149,100.587
1312959032149,99.5624
1312959092149,100.739
1312959152149,100.460
1312959212149,100.492
1312959272149,100.066
1312959332149,100.486
1312959392149,99.8610
1312959452149,100.037
1312959512149,99.8841
1312959572149,100.343
1312959632158,100.068
1312959692158,100.437
1312959752158,99.8539
1312959812158,100.460
1312959872158,100.007
1312959932158,99.6162
1312959992158,99.8530
1312960052158,100.557
1312960112158,100.309
1312960172158,99.8051
1312960232158,100.073
1312960292158,99.9928
1312960352158,99.5772
1312960412158,99.8889
1312960472158,99.6281
1312960532158,99.8985
1312960592158,99.5436
1312960652158,99.6637
1312960712158,99.8207
1312960772158,100.002
1312960832158,99.6755
1312960892158,99.6523
1312960952158,99.6545
1312961012158,99.6969
1312961072158,99.8174
1312961132158,99.9080
1312961192158,99.6401
1312961252158,100.173
1312961312158,99.2173
1312961372158,100.038
1312961432158,100.093
1312961492158,99.5786
1312961552158,100.257
1312961612158,99.8174
1312961672158,99.4846
1312961732158,99.5871
1312961792158,99.5174
1312961852158,100.304
1312961912158,99.7094
1312961972158,99.9913
1312962032158,100.224
1312962092158,100.170
1312962152158,99.6235
1312962212158,99.9826
1312962272158,99.7606
1312962332158,100.115
1312962392158,99.8575
1312962452158,99.6704
1312962512158,99.9511
1312962572158,99.7218
1312962632158,99.7560
1312962692158,99.8193
1312962752158,99.5724
1312962812158,99.4887
1312962872158,99.8524
1312962932158,99.6128
1312962992158,99.3217
1312963052158,99.8135
1312963112158,99.6179
1312963172158,100.213
1312963232167,99.8080
1312963292167,100.120
1312963352167,99.6538
1312963412166,100.182
1312963472166,99.9481
1312963532166,100.183
1312963592166,99.9398
1312963652166,99.7012
1312963712166,99.9064
1312963772166,99.8712
1312963832167,98.9794
1312963892167,99.7729
1312963952167,99.9686
1312964012167,100.223
1312964072166,100.431
1312964132167,100.031
1312964192167,100.393
1312964252167,99.6323
1312964312167,99.4591
1312964372167,100.311
1312964432167,99.6909
1312964492167,100.052
1312964552167,99.8033
1312964612167,100.352
1312964672167,100.175
1312964732166,100.554
1312964792166,100.347
1312964852166,100.749
1312964912166,100.368
1312964972166,100.888
1312965032166,100.734
1312965092166,100.580
1312965152167,100.594
1312965212167,99.9980
1312965272167,100.281
1312965332167,100.223
1312965392167,100.731
1312965452166,100.544
1312965512167,100.528
1312965572167,100.254
1312965632167,100.538
1312965692167,101.090
1312965752167,100.525
1312965812167,100.503
1312965872167,100.317
1312965932167,100.749
1312965992167,100.789
1312966052167,101.092
1312966112166,100.678
1312966172166,101.143
1312966232166,100.561
1312966292166,101.022
1312966352166,100.598
1312966412166,101.060
1312966472166,100.786
1312966532167,101.214
1312966592167,100.748
1312966652167,100.723
1312966712167,101.340
1312966772166,101.175
1312966832175,100.765
1312966892175,101.351
1312966952175,101.338
1312967012175,101.679
1312967072175,100.915
1312967132175,101.428
1312967192175,100.945
1312967252175,100.830
1312967312175,100.840
1312967372175,101.580
1312967432175,101.205
1312967492175,101.128
1312967552175,101.618
1312967612175,101.659
1312967672175,101.154
1312967732175,101.227
1312967792175,100.836
1312967852175,101.265
1312967912175,101.345
1312967972175,100.955
1312968032175,101.020
1312968092175,101.508
1312968152175,101.085
1312968212175,101.542
1312968272175,101.127
1312968332175,101.248
1312968392175,101.187
1312968452175,101.106
1312968512175,101.896
1312968572175,101.603
1312968632175,100.892
1312968692175,101.564
1312968752175,101.291
1312968812175,100.925
1312968872175,101.310
1312968932175,101.326
1312968992175,101.489
1312969052175,101.303
1312969112175,101.699
1312969172175,101.181
1312969232175,101.016
1312969292175,101.018
1312969352175,101.292
1312969412175,101.311
1312969472175,101.352
1312969532175,101.399
1312969592175,101.594
1312969652175,101.173
1312969712175,101.516
1312969772175,101.437
1312969832175,101.522
1312969892175,101.132
1312969952175,101.596
1312970012175,101.719
1312970072175,101.177
1312970132175,101.403
1312970192175,101.869
1312970252175,101.484
1312970312175,101.438
1312970372175,101.323
1312970432184,101.194
1312970492184,101.207
1312970552184,102.191
1312970612184,101.522
1312970672184,101.922
1312970732184,102.209
1312970792184,101.437
1312970852184,101.497
1312970912184,101.996
1312970972184,101.838
1312971032184,102.166
1312971092184,101.584
1312971152184,101.524
1312971212184,101.948
1312971272184,101.647
1312971332184,101.687
1312971392184,101.852
1312971452184,101.840
1312971512184,101.727
1312971572184,101.647
1312971632184,101.484
1312971692184,102.019
1312971752184,101.312
1312971812184,101.753
1312971872184,101.982
1312971932184,101.628
1312971992184,101.934
1312972052184,101.748
1312972112184,101.965
1312972172184,101.701
1312972232184,101.216
1312972292184,101.555
1312972352184,101.872
1312972412184,101.492
1312972472184,102.174
1312972532184,101.868
1312972592184,101.818
1312972652184,101.186
1312972712184,101.825
1312972772184,101.696
1312972832184,101.636
1312972892184,101.387
1312972952184,101.845
1312973012184,101.432
1312973072184,101.577
1312973132184,101.666
1312973192184,101.688
1312973252184,101.695
1312973312184,101.834
1312973372184,101.457
1312973432184,102.086
1312973492184,101.332
1312973552184,101.642
1312973612184,101.474
1312973672184,102.003
1312973732184,101.889
1312973792184,101.937
1312973852184,102.115
1312973912184,101.960
1312973972184,101.769
1312974032193,101.618
1312974092193,101.853
1312974152193,101.951
1312974212193,101.883
1312974272193,101.570
1312974332193,101.579
1312974392193,101.989
1312974452193,102.099
1312974512193,101.210
1312974572193,101.262
1312974632193,101.865
1312974692193,101.062
1312974752193,101.746
1312974812193,101.224
1312974872193,101.897
1312974932193,101.425
1312974992193,101.413
1312975052193,101.675
1312975112193,101.653
1312975172193,101.399
1312975232193,102.122
1312975292193,101.851
1312975352193,101.174
1312975412193,101.583
1312975472193,101.345
1312975532193,101.053
1312975592193,101.772
1312975652193,101.256
1312975712193,101.463
1312975772193,101.143
1312975832193,101.677
1312975892193,101.397
1312975952193,101.549
1312976012193,101.093
1312976072193,101.375
1312976132193,101.453
1312976192193,101.344
1312976252193,101.146
1312976312193,101.026
1312976372193,101.851
1312976432193,100.886
1312976492193,101.289
1312976552193,101.450
1312976612193,101.541
1312976672193,101.288
1312976732193,101.106
1312976792193,101.495
1312976852193,101.526
1312976912193,100.999
1312976972193,101.829
1312977032193,101.565
1312977092193,101.761
1312977152193,101.344
1312977212193,101.453
1312977272193,101.544
1312977332193,101.888
1312977392193,101.710
1312977452193,101.551
1312977512193,102.041
1312977572193,101.625
1312977632202,101.472
1312977692202,101.323
1312977752202,101.827
1312977812202,101.698
1312977872202,101.956
1312977932202,101.112
1312977992202,101.137
1312978052202,101.273
1312978112202,101.461
1312978172202,101.679
1312978232202,101.567
1312978292202,101.284
1312978352202,101.420
1312978412202,101.691
1312978472202,101.287
1312978532202,101.535
1312978592202,101.362
1312978652202,100.980
1312978712202,101.586
1312978772202,101.369
1312978832202,101.614
1312978892202,100.992
1312978952202,101.794
1312979012202,101.462
1312979072202,101.429
1312979132202,101.631
1312979192202,101.340
1312979252202,101.316
1312979312202,101.214
1312979372202,101.561
1312979432202,101.553
1312979492202,101.387
1312979552202,101.384
1312979612202,101.594
1312979672202,102.058
1312979732202,101.144
1312979792202,101.160
1312979852202,101.725
1312979912202,101.483
1312979972202,101.641
1312980032202,101.539
1312980092202,101.716
1312980152202,101.467
1312980212202,101.205
1312980272202,101.022
1312980332202,101.526
1312980392202,101.500
1312980452202,101.402
1312980512202,101.222
1312980572202,101.018
1312980632202,101.477
1312980692202,101.114
1312980752202,100.869
1312980812202,101.480
1312980872202,101.647
1312980932202,101.166
1312980992202,101.763
1312981052202,100.952
1312981112202,101.036
1312981172202,100.793
1312981232211,100.831
1312981292211,101.276
1312981352211,101.298
1312981412211,101.150
1312981472211,101.193
1312981532211,101.365
1312981592211,101.219
1312981652211,101.638
1312981712211,101.369
1312981772211,101.067
1312981832211,101.218
1312981892211,101.157
1312981952211,101.147
1312982012211,101.330
1312982072211,101.622
1312982132211,101.302
1312982192211,101.036
1312982252211,101.541
1312982312211,101.054
1312982372211,101.297
1312982432211,101.611
1312982492211,101.119
1312982552211,100.899
1312982612211,101.621
1312982672211,100.805
1312982732211,100.970
1312982792211,100.989
1312982852211,100.810
1312982912211,101.029
1312982972211,101.004
1312983032211,101.274
1312983092211,101.599
1312983152211,101.040
1312983212211,101.547
1312983272211,101.303
1312983332211,100.952
1312983392211,101.224
1312983452211,101.194
1312983512211,101.372
1312983572211,100.927
1312983632211,101.159
1312983692211,100.819
1312983752211,101.521
1312983812211,100.909
1312983872211,101.287
1312983932211,101.311
1312983992211,100.726
1312984052211,100.586
1312984112211,100.502
1312984172211,100.559
1312984232211,100.676
1312984292211,101.599
1312984352211,100.669
1312984412211,100.754
1312984472211,100.430
1312984532211,100.821
1312984592211,101.271
1312984652211,100.737
1312984712211,100.506
1312984772211,101.317
1312984832221,101.236
1312984892221,100.490
1312984952221,100.659
1312985012221,100.889
1312985072221,100.979
1312985132221,100.938
1312985192221,101.063
1312985252221,100.525
1312985312221,101.014
1312985372221,101.089
1312985432221,101.073
1312985492221,101.089
1312985552221,100.345
1312985612221,100.163
1312985672221,100.891
1312985732221,100.492
1312985792221,99.8100
1312985852221,100.851
1312985912221,100.870
1312985972221,100.603
1312986032221,100.126
1312986092221,100.010
1312986152221,100.343
1312986212221,100.657
1312986272221,100.034
1312986332221,100.362
1312986392221,100.394
1312986452221,100.569
1312986512221,100.029
1312986572221,100.473
1312986632221,100.287
1312986692221,99.6285
1312986752221,100.337
1312986812221,100.276
1312986872221,100.349
1312986932221,100.128
1312986992221,100.393
1312987052221,100.549
1312987112221,100.334
1312987172221,100.038
1312987232221,100.322
1312987292221,100.482
1312987352221,100.240
1312987412221,99.9772
1312987472221,100.780
1312987532221,100.261
1312987592221,100.345
1312987652221,100.929
1312987712221,100.248
1312987772221,100.854
1312987832221,100.317
1312987892221,99.7617
1312987952221,100.623
1312988012221,100.483
1312988072221,100.070
1312988132221,99.9511
1312988192221,100.254
1312988252221,100.949
1312988312221,100.666
1312988372221,100.490
1312988432231,101.022
1312988492231,100.417
1312988552231,100.689
1312988612231,100.696
1312988672231,100.565
1312988732231,100.393
1312988792231,100.410
1312988852231,100.086
1312988912231,100.507
1312988972231,100.616
1312989032231,101.118
1312989092231,100.314
1312989152231,100.298
1312989212231,100.255
1312989272231,100.763
1312989332231,100.416
1312989392231,100.554
1312989452231,100.475
1312989512231,100.199
1312989572231,100.720
1312989632231,100.279
1312989692231,100.410
1312989752231,100.448
1312989812231,100.283
1312989872231,100.337
1312989932231,100.812
1312989992231,100.366
1312990052231,100.631
1312990112231,100.903
1312990172231,100.489
1312990232231,100.603
1312990292231,100.987
1312990352231,100.639
1312990412231,100.616
1312990472231,100.679
1312990532231,99.7509
1312990592231,100.773
1312990652231,100.188
1312990712231,100.762
1312990772231,100.519
1312990832231,100.264
1312990892231,100.905
1312990952231,100.626
1312991012231,100.694
1312991072231,100.840
1312991132231,101.048
1312991192231,100.711
1312991252231,100.297
1312991312231,100.918
1312991372231,100.288
1312991432231,100.485
1312991492231,100.360
1312991552231,100.253
1312991612231,100.589
1312991672231,100.470
1312991732231,100.931
1312991792231,100.537
1312991852231,100.600
1312991912231,100.438
1312991972231,100.513
1312992032241,100.351
1312992092241,100.773
1312992152241,100.483
1312992212241,100.295
1312992272240,100.395
1312992332240,100.801
1312992392241,100.173
1312992452241,100.783
1312992512241,100.708
1312992572241,100.185
1312992632241,100.095
1312992692241,100.526
1312992752241,100.528
1312992812241,100.884
1312992872241,101.092
1312992932241,100.863
1312992992241,101.049
1312993052241,101.015
1312993112241,100.979
1312993172241,100.567
1312993232241,100.608
1312993292241,100.988
1312993352241,100.696
1312993412241,100.661
1312993472241,100.980
1312993532241,100.490
1312993592240,100.826
1312993652240,100.318
1312993712241,101.099
1312993772241,101.327
1312993832241,101.162
1312993892241,101.353
1312993952241,101.186
1312994012241,100.869
1312994072241,100.733
1312994132241,100.611
1312994192241,101.304
1312994252241,101.298
1312994312241,101.727
1312994372241,101.183
1312994432241,101.009
1312994492241,101.238
1312994552241,101.239
1312994612241,101.348
1312994672241,101.649
1312994732241,101.388
1312994792241,101.191
1312994852241,101.340
1312994912241,101.511
1312994972240,101.413
1312995032240,101.447
1312995092241,101.030
1312995152241,101.454
1312995212241,100.981
1312995272241,101.055
1312995332241,101.346
1312995392241,100.954
1312995452241,100.826
1312995512241,100.848
1312995572241,100.646
1312995632251,100.846
1312995692251,101.094
1312995752251,100.756
1312995812251,100.805
1312995872251,101.142
1312995932251,101.141
1312995992251,100.740
1312996052251,100.571
1312996112251,100.859
1312996172251,101.169
1312996232251,100.418
1312996292251,101.134
1312996352251,100.557
1312996412251,100.584
1312996472251,100.553
1312996532251,100.857
1312996592251,101.319
1312996652251,100.858
1312996712251,100.483
1312996772251,100.901
1312996832251,100.814
1312996892251,100.842
1312996952251,100.397
1312997012251,100.509
1312997072251,100.550
1312997132251,100.732
1312997192251,100.455
1312997252251,101.108
1312997312251,100.444
1312997372251,100.180
1312997432251,100.802
1312997492251,100.584
1312997552251,100.931
1312997612251,100.893
1312997672251,100.517
1312997732251,100.567
1312997792251,100.903
1312997852251,100.301
1312997912251,100.231
1312997972251,100.101
1312998032251,100.317
1312998092251,100.520
1312998152251,100.504
1312998212251,100.333
1312998272251,100.566
1312998332251,99.9988
1312998392251,100.334
1312998452251,100.382
1312998512251,100.823
1312998572251,100.502
1312998632251,100.487
1312998692251,100.470
1312998752251,100.660
1312998812251,100.585
1312998872251,100.212
1312998932251,100.958
1312998992251,100.360
1312999052251,100.327
1312999112251,100.045
1312999172251,99.9846
1312999232261,100.141
1312999292261,100.251
1312999352261,100.386
1312999412261,100.111
1312999472261,100.246
1312999532261,100.178
1312999592261,100.551
1312999652261,100.552
1312999712261,100.475
1312999772261,100.296
1312999832261,100.174
1312999892261,100.314
1312999952261,100.298
1313000012261,99.9853
1313000072261,100.297
1313000132261,100.348
1313000192261,100.268
1313000252261,100.399